Regional Weather Roundup
Issued by NWS

Home | Current Version | Previous Version | Text Only | Print | Product List | Glossary On
Versions: 1 2 3 4 5 6 7 8 9 10 11 12 13 14 15 16 17 18 19 20 21 22 23 24 25 26 27
000
ASUS44 KJAN 212310
RWRMS

MISSISSIPPI HOURLY WEATHER ROUNDUP
NATIONAL WEATHER SERVICE JACKSON MS
500 PM CST SUN JAN 21 2018

NOTE: "FAIR: INDICATES FEW OR NO CLOUDS BELOW 12,000 FEET WITH NO
SIGNIFICANT WEATHER AND/OR OBSTRUCTIONS TO VISIBILITY.

MSZ001>002-007>008-010>013-018>021-025>028-034>036-220000-
NORTHWEST MISSISSIPPI

CITY           SKY/WX    TMP DP  RH WIND       PRES   REMARKS
BATESVILLE     FAIR      67  50  56 SW7       30.01S
CLARKSDALE     CLEAR     66  61  82 SE10      29.98F
CLEVELAND      MOCLDY    67  59  74 SE10      29.97F
GREENWOOD      FAIR      70  54  56 S9        30.01S
GREENVILLE     FAIR      68  57  68 S7        29.97F
OLIVE BRANCH   MOCLDY    64  57  77 S6        29.99R
TUNICA           N/A     61  55  82 S10       29.99S
WINONA         FAIR      69  53  56 S9        30.02F
$$

MSZ003>006-009-014>017-022>024-029>033-037>039-220000-
NORTHEAST MISSISSIPPI

CITY           SKY/WX    TMP DP  RH WIND       PRES   REMARKS
ABERDEEN         N/A     68  54  60 SE7       30.07S
COLUMBUS AFB   FAIR      66  48  52 SE7       30.06S
CORINTH        MOCLDY    64  46  52 S8        30.03S
GOLDN TRIANGLE FAIR      68  47  46 SE12      30.07S
STARKVILLE     FAIR      68  48  49 SE8       30.07R
TUPELO         FAIR      66  46  48 SE9       30.05S
$$

MSZ040-058-220000-
CENTRAL MISSISSIPPI

CITY           SKY/WX    TMP DP  RH WIND       PRES   REMARKS
JACKSON INTL   MOCLDY    70  56  61 S10       30.03S
JACKSON HAWKNS MOCLDY    70  57  63 S13       30.04S
MADISON        MOCLDY    70  55  60 S6        30.03S
MERIDIAN KEY   FAIR      70  48  45 S7        30.09R
MERIDIAN NAS   FAIR      70  47  43 S7        30.09S
RAYMOND        FAIR      70  57  64 SE7       30.02F
VICKSBURG VKS  MOCLDY    72  57  60 S9        30.02S
$$

MSZ059>079-220000-
SOUTH MISSISSIPPI

CITY           SKY/WX    TMP DP  RH WIND       PRES   REMARKS
HATTIESBURG    FAIR      69  53  56 S7        30.09S
LAUREL         FAIR      68  49  50 SE5       30.09S
MCCOMB         MOCLDY    69  56  62 S9        30.05S
NATCHEZ        NOT AVBL
PINE BELT      MOCLDY    69  52  54 S7        30.09S
$$

MSZ080>082-220000-
COASTAL MISSISSIPPI

CITY           SKY/WX    TMP DP  RH WIND       PRES   REMARKS
BAY ST LOUIS   CLEAR     61  57  88 E9        30.10F
BILOXI         FAIR      63  55  75 E9        30.11R
PASCAGOULA     FAIR      63  52  67 SE9       30.11F
GULFPORT       FAIR      63  55  75 E16       30.11R
$$

LAZ007>009-015>016-023>026-220000-
NORTHEAST LOUISIANA

CITY           SKY/WX    TMP DP  RH WIND       PRES   REMARKS
BASTROP        CLOUDY    69  61  76 S6        29.97F
TALLULAH/VBURG FAIR      69  60  73 S12       30.01S
VIDALIA        CLOUDY   N/A N/A N/A MISG      30.00S
$$




USA.gov is the U.S. government's official web portal to all federal, state and local government web resources and services.